When you browse on this site, cookies collect data to enhance your experience and personalize the content and advertising you see.
Visit our Privacy Policy to learn more. By continuing to use the site, you agree to this use of cookies and data.

Hourly Weather Kandahar

Today, 11 July, Saturday

Time Temperature Precipitation Wind Pressure Humidity
00:00 +27°C° 0 mm 1 mps 666 mmHg 10%
01:00 +26°C° 0 mm 1 mps 666 mmHg 10%
02:00 +26°C° 0 mm 1 mps 665 mmHg 11%
03:00 +25°C° 0 mm 1 mps 665 mmHg 12%
04:00 +24°C° 0 mm 1 mps 665 mmHg 12%
05:00 +28°C° 0 mm 1 mps 666 mmHg 10%
06:00 +31°C° 0 mm 1 mps 667 mmHg 9%
07:00 +35°C° 0 mm 2 mps 668 mmHg 7%
08:00 +36°C° 0 mm 2 mps 668 mmHg 7%
09:00 +38°C° 0 mm 2 mps 668 mmHg 6%
10:00 +40°C° 0 mm 1 mps 668 mmHg 5%
11:00 +41°C° 0 mm 2 mps 668 mmHg 5%
12:00 +42°C° 0 mm 2 mps 668 mmHg 5%
13:00 +43°C° 0 mm 2 mps 667 mmHg 5%
14:00 +43°C° 0 mm 2 mps 667 mmHg 5%
15:00 +44°C° 0 mm 3 mps 666 mmHg 5%
16:00 +44°C° 0 mm 3 mps 666 mmHg 5%
17:00 +42°C° 0 mm 3 mps 665 mmHg 6%
18:00 +38°C° 0 mm 3 mps 665 mmHg 7%
19:00 +36°C° 0 mm 3 mps 664 mmHg 8%
20:00 +35°C° 0 mm 3 mps 664 mmHg 9%
21:00 +34°C° 0 mm 3 mps 665 mmHg 10%
22:00 +33°C° 0 mm 4 mps 665 mmHg 11%
23:00 +31°C° 0 mm 3 mps 665 mmHg 14%

Tomorrow, 12 July, Sunday

Time Temperature Precipitation Wind Pressure Humidity
00:00 +29°C° 0 mm 2 mps 664 mmHg 17%
01:00 +28°C° 0 mm 1 mps 664 mmHg 20%
02:00 +27°C° 0 mm 1 mps 664 mmHg 21%
03:00 +27°C° 0 mm 1 mps 664 mmHg 22%
04:00 +26°C° 0 mm 1 mps 664 mmHg 23%
05:00 +28°C° 0 mm 2 mps 665 mmHg 21%
06:00 +30°C° 0 mm 2 mps 666 mmHg 19%
07:00 +32°C° 0 mm 2 mps 666 mmHg 17%
08:00 +34°C° 0 mm 3 mps 667 mmHg 15%
09:00 +36°C° 0 mm 3 mps 667 mmHg 14%
10:00 +38°C° 0 mm 4 mps 667 mmHg 12%
11:00 +41°C° 0 mm 5 mps 667 mmHg 11%
12:00 +42°C° 0 mm 5 mps 667 mmHg 9%
13:00 +45°C° 0 mm 6 mps 667 mmHg 8%
14:00 +45°C° 0 mm 6 mps 667 mmHg 8%
15:00 +45°C° 0 mm 6 mps 666 mmHg 7%
16:00 +45°C° 0 mm 7 mps 666 mmHg 7%
17:00 +41°C° 0 mm 5 mps 665 mmHg 8%
18:00 +38°C° 0 mm 4 mps 665 mmHg 10%
19:00 +36°C° 0 mm 3 mps 665 mmHg 11%
20:00 +34°C° 0 mm 2 mps 665 mmHg 13%
21:00 +31°C° 0 mm 1 mps 664 mmHg 14%
22:00 +27°C° 0 mm 0 mps 664 mmHg 16%
23:00 +28°C° 0 mm 1 mps 664 mmHg 16%

Day after tomorrow, 13 July, Monday

Time Temperature Precipitation Wind Pressure Humidity
00:00 +27°C° 0 mm 1 mps 664 mmHg 16%
01:00 +27°C° 0 mm 1 mps 664 mmHg 17%
02:00 +26°C° 0 mm 1 mps 664 mmHg 17%
03:00 +26°C° 0 mm 1 mps 664 mmHg 18%
04:00 +25°C° 0 mm 1 mps 664 mmHg 19%
05:00 +27°C° 0 mm 1 mps 665 mmHg 17%
06:00 +30°C° 0 mm 2 mps 666 mmHg 14%
07:00 +32°C° 0 mm 2 mps 667 mmHg 12%
08:00 +35°C° 0 mm 3 mps 667 mmHg 11%
09:00 +37°C° 0 mm 3 mps 668 mmHg 11%
10:00 +38°C° 0 mm 3 mps 668 mmHg 10%
11:00 +41°C° 0 mm 4 mps 668 mmHg 9%
12:00 +42°C° 0 mm 4 mps 668 mmHg 8%
13:00 +45°C° 0 mm 5 mps 667 mmHg 7%
14:00 +45°C° 0 mm 6 mps 667 mmHg 6%
15:00 +45°C° 0 mm 6 mps 667 mmHg 6%
16:00 +46°C° 0 mm 7 mps 666 mmHg 5%
17:00 +42°C° 0 mm 6 mps 666 mmHg 7%
18:00 +40°C° 0 mm 5 mps 666 mmHg 8%
19:00 +36°C° 0 mm 4 mps 666 mmHg 9%
20:00 +34°C° 0 mm 3 mps 666 mmHg 10%
21:00 +31°C° 0 mm 2 mps 666 mmHg 12%
22:00 +29°C° 0 mm 1 mps 666 mmHg 13%
23:00 +28°C° 0 mm 1 mps 666 mmHg 14%

14 July, Tuesday

Time Temperature Precipitation Wind Pressure Humidity
00:00 +28°C° 0 mm 2 mps 666 mmHg 15%
01:00 +27°C° 0 mm 2 mps 666 mmHg 16%
02:00 +26°C° 0 mm 2 mps 666 mmHg 18%
03:00 +25°C° 0 mm 1 mps 666 mmHg 19%
04:00 +24°C° 0 mm 1 mps 666 mmHg 21%
05:00 +27°C° 0 mm 1 mps 667 mmHg 20%
06:00 +29°C° 0 mm 1 mps 668 mmHg 18%
07:00 +32°C° 0 mm 2 mps 669 mmHg 17%
08:00 +35°C° 0 mm 2 mps 670 mmHg 15%
09:00 +37°C° 0 mm 3 mps 670 mmHg 13%
10:00 +40°C° 0 mm 4 mps 670 mmHg 11%
11:00 +42°C° 0 mm 5 mps 670 mmHg 10%
12:00 +44°C° 0 mm 6 mps 670 mmHg 8%
13:00 +46°C° 0 mm 6 mps 670 mmHg 7%
14:00 +46°C° 0 mm 7 mps 669 mmHg 7%
15:00 +46°C° 0 mm 7 mps 669 mmHg 7%
16:00 +46°C° 0 mm 7 mps 668 mmHg 6%
17:00 +42°C° 0 mm 6 mps 668 mmHg 8%
18:00 +38°C° 0 mm 4 mps 668 mmHg 9%
19:00 +36°C° 0 mm 3 mps 667 mmHg 11%
20:00 +34°C° 0 mm 3 mps 667 mmHg 12%
21:00 +32°C° 0 mm 2 mps 667 mmHg 14%
22:00 +30°C° 0 mm 2 mps 667 mmHg 15%
23:00 +29°C° 0 mm 2 mps 667 mmHg 16%

15 July, Wednesday

Time Temperature Precipitation Wind Pressure Humidity
00:00 +28°C° 0 mm 1 mps 667 mmHg 18%
01:00 +27°C° 0 mm 1 mps 666 mmHg 19%
02:00 +27°C° 0 mm 1 mps 667 mmHg 19%
03:00 +26°C° 0 mm 1 mps 667 mmHg 19%
04:00 +26°C° 0 mm 2 mps 667 mmHg 20%
05:00 +28°C° 0 mm 2 mps 668 mmHg 18%
06:00 +30°C° 0 mm 2 mps 669 mmHg 16%
07:00 +32°C° 0 mm 2 mps 669 mmHg 14%
08:00 +36°C° 0 mm 2 mps 670 mmHg 12%
09:00 +38°C° 0 mm 2 mps 670 mmHg 11%
10:00 +40°C° 0 mm 3 mps 670 mmHg 9%
11:00 +42°C° 0 mm 3 mps 670 mmHg 9%
12:00 +44°C° 0 mm 4 mps 670 mmHg 8%
13:00 +45°C° 0 mm 4 mps 669 mmHg 7%
14:00 +45°C° 0 mm 3 mps 669 mmHg 7%
15:00 +45°C° 0 mm 3 mps 668 mmHg 6%
16:00 +45°C° 0 mm 2 mps 667 mmHg 6%
17:00 +41°C° 0 mm 2 mps 667 mmHg 8%
18:00 +36°C° 0 mm 1 mps 666 mmHg 9%
19:00 +33°C° 0 mm 1 mps 665 mmHg 11%
20:00 +32°C° 0 mm 1 mps 666 mmHg 12%
21:00 +32°C° 0 mm 1 mps 666 mmHg 12%
22:00 +31°C° 0 mm 1 mps 666 mmHg 13%
23:00 +30°C° 0 mm 1 mps 666 mmHg 14%

16 July, Thursday

Time Temperature Precipitation Wind Pressure Humidity
00:00 +29°C° 0 mm 2 mps 665 mmHg 15%
01:00 +29°C° 0 mm 2 mps 665 mmHg 15%
02:00 +28°C° 0 mm 2 mps 665 mmHg 16%
03:00 +27°C° 0 mm 2 mps 665 mmHg 17%
04:00 +26°C° 0 mm 2 mps 665 mmHg 18%
05:00 +28°C° 0 mm 2 mps 666 mmHg 16%
06:00 +30°C° 0 mm 1 mps 667 mmHg 14%
07:00 +33°C° 0 mm 1 mps 667 mmHg 13%
08:00 +36°C° 0 mm 2 mps 667 mmHg 11%
09:00 +38°C° 0 mm 3 mps 668 mmHg 10%
10:00 +41°C° 0 mm 4 mps 668 mmHg 9%
11:00 +42°C° 0 mm 4 mps 667 mmHg 8%
12:00 +43°C° 0 mm 4 mps 667 mmHg 7%
13:00 +44°C° 0 mm 4 mps 667 mmHg 6%
14:00 +44°C° 0 mm 4 mps 666 mmHg 6%
15:00 +46°C° 0 mm 5 mps 666 mmHg 6%
16:00 +46°C° 0 mm 5 mps 665 mmHg 5%
17:00 +42°C° 0 mm 4 mps 665 mmHg 6%
18:00 +38°C° 0 mm 3 mps 664 mmHg 7%
19:00 +35°C° 0 mm 2 mps 664 mmHg 8%
20:00 +34°C° 0 mm 2 mps 664 mmHg 9%
21:00 +31°C° 0 mm 2 mps 664 mmHg 10%
22:00 +30°C° 0 mm 2 mps 665 mmHg 11%
23:00 +29°C° 0 mm 2 mps 665 mmHg 11%
Show more